Voltar ao catálogo

STARLINK-32019

AtivoComunicaçõesVLEO
NORAD 60147·PAYLOAD·🇺🇸 United States

Lançado Jun 27, 2024 de Cape Canaveral Space Force Station

Loading…

Próximas Passagens (próximas 24 horas)

TLE

AtualizadoSource: CelesTrak SupGP

Época: Sep 15, 2026, 02:31 UTC

1 60147C 24120N   26258.10534722 -.00027210  00000+0 -80399-3 0  2587
2 60147  53.1578 156.7320 0001324  88.2900 294.0421 15.34401407    12

Acompanhe STARLINK-32019 em tempo real com AllMySat

Download on the App Store